CW8164 Weather Reports


time (UTC)temp
F
wind
direction
speed
knots
gust
knots
rain 1hr
in
rain 24hr
in
rain mn
in
humidity
%
barometer
mb
20260506092903 56 248 0.0 0.0 0.00 0.00 0.00 86 1017.7
20260506092403 56 257 0.0 0.0 0.00 0.00 0.00 86 1017.7
20260506091903 56 262 0.0 0.0 0.00 0.00 0.00 86 1017.7
20260506091402 56 262 0.0 0.0 0.00 0.00 0.00 85 1017.7
20260506090903 56 262 0.0 0.0 0.00 0.00 0.00 85 1017.7
20260506090403 56 262 0.0 0.0 0.00 0.00 0.00 85 1017.7
20260506085903 56 262 0.0 0.0 0.00 0.00 0.00 85 1017.7
20260506085403 56 262 0.0 0.0 0.00 0.00 0.00 84 1017.7
20260506084403 56 263 0.0 0.0 0.00 0.00 0.00 85 1017.7
20260506083402 56 202 0.0 0.0 0.00 0.00 0.00 85 1017.7
20260506082903 56 260 0.0 0.0 0.00 0.00 0.00 84 1017.7
20260506082402 56 236 0.0 0.0 0.00 0.00 0.00 85 1017.6
20260506081903 56 203 0.0 0.0 0.00 0.00 0.00 85 1017.6
20260506081402 56 203 0.0 0.0 0.00 0.00 0.00 85 1017.6
20260506080903 56 219 0.0 0.0 0.00 0.00 0.00 86 1017.5
20260506080403 57 219 0.0 0.0 0.00 0.00 0.00 85 1017.5
20260506073402 57 221 0.0 0.0 0.00 0.00 0.00 86 1017.2
20260506072902 57 221 0.0 0.0 0.00 0.00 0.00 86 1017.3
20260506072403 57 221 0.0 0.0 0.00 0.00 0.00 88 1017.1
20260506071902 57 221 0.0 0.0 0.00 0.00 0.00 87 1017.1
20260506071403 57 221 0.0 0.0 0.00 0.00 0.00 88 1017.1
20260506070902 57 221 0.0 0.0 0.00 0.00 0.00 88 1017.1
20260506070402 57 221 0.0 0.0 0.00 0.00 0.00 87 1017.0
20260506061902 57 221 0.0 0.0 0.00 0.00 0.00 88 1016.9
20260506061403 57 221 0.0 0.0 0.00 0.00 0.00 88 1016.9
20260506060403 57 221 0.0 0.0 0.00 0.00 0.00 88 1016.8
20260506050903 56 135 0.0 0.0 0.00 0.00 0.00 89 1016.3
20260506050403 56 135 0.0 0.0 0.00 0.00 0.00 90 1016.3
20260506044902 56 135 0.0 0.0 0.00 0.00 0.00 89 1016.3
20260506044403 56 135 0.0 0.0 0.00 0.00 0.00 88 1016.2
20260506043903 56 135 0.0 0.0 0.00 0.00 0.00 88 1016.2
20260506042903 56 135 0.0 0.0 0.00 0.00 0.00 86 1016.0
20260506042403 56 135 0.0 0.0 0.00 0.00 0.00 85 1016.0
20260506041903 57 135 0.0 0.0 0.00 0.00 0.00 85 1015.8
20260506041404 57 135 0.0 0.0 0.00 0.00 0.00 84 1015.8
20260506035903 58 135 0.0 0.0 0.00 0.00 0.00 83 1015.7
20260506034903 59 135 0.0 0.0 0.00 0.00 0.00 82 1015.6
20260506034403 59 135 0.0 0.0 0.00 0.00 0.00 81 1015.4
20260506033903 60 135 0.0 0.0 0.00 0.00 0.00 79 1015.3
20260506033403 60 135 0.0 0.0 0.00 0.00 0.00 80 1015.4
20260506032903 60 135 0.0 0.0 0.00 0.00 0.00 79 1015.4
20260506032404 61 135 0.0 0.0 0.00 0.00 0.00 79 1015.3
20260506031902 61 135 0.0 0.0 0.00 0.00 0.00 79 1015.3
20260506031403 61 135 0.0 0.0 0.00 0.00 0.00 78 1015.3
20260506030903 61 135 0.0 0.0 0.00 0.00 0.00 77 1015.3
20260506030402 61 135 0.0 0.0 0.00 0.00 0.00 76 1015.2
20260506025903 61 135 0.0 0.0 0.00 0.00 0.00 75 1015.2
20260506025402 61 135 0.0 0.0 0.00 0.00 0.00 75 1015.2
20260506024903 62 135 0.0 0.0 0.00 0.00 0.00 76 1015.1
20260506024402 62 135 0.0 0.0 0.00 0.00 0.00 76 1015.0
20260506023903 62 135 0.0 0.0 0.00 0.00 0.00 76 1014.9
20260506023403 62 132 0.0 0.0 0.00 0.00 0.00 77 1015.1
20260506022903 62 126 0.0 0.0 0.00 0.00 0.00 76 1015.2
20260506022402 62 175 0.0 0.0 0.00 0.00 0.00 77 1015.0
20260506021903 62 175 0.0 0.0 0.00 0.00 0.00 77 1015.0
20260506015903 62 176 0.0 0.0 0.00 0.00 0.00 76 1015.0
20260506015403 62 177 0.0 0.0 0.00 0.00 0.00 75 1015.1
20260506014903 62 177 0.0 0.0 0.00 0.00 0.00 73 1015.1
20260506014402 62 177 0.0 0.0 0.00 0.00 0.00 74 1015.0
20260506013902 62 175 0.0 0.0 0.00 0.00 0.00 74 1015.1
20260506013403 62 147 0.0 0.0 0.00 0.00 0.00 73 1015.1
20260506012902 62 147 0.0 0.0 0.00 0.00 0.00 72 1015.1
20260506012403 62 103 0.0 0.0 0.00 0.00 0.00 73 1015.1
20260506011903 62 47 0.0 0.0 0.00 0.00 0.00 71 1015.1
20260506011403 62 47 0.0 0.0 0.00 0.00 0.00 72 1015.1
20260506010902 62 39 0.0 0.0 0.00 0.00 0.00 72 1015.1
20260506010403 62 355 0.0 0.0 0.00 0.00 0.00 72 1015.1
20260506005403 62 76 0.0 0.0 0.00 0.00 0.00 73 1015.1
20260506003903 62 276 0.0 1.7 0.00 0.00 0.00 72 1015.2
20260506003402 62 279 0.0 1.7 0.00 0.00 0.00 73 1015.2
20260506002403 62 149 0.0 1.7 0.00 0.00 0.00 73 1015.3
20260506001902 62 132 0.0 1.7 0.00 0.00 0.00 74 1015.2
20260506001402 62 41 0.0 1.7 0.00 0.00 0.00 74 1015.2
20260506000903 62 26 0.0 1.7 0.00 0.00 0.00 73 1015.3
20260506000403 62 30 0.9 4.3 0.00 0.00 0.00 74 1015.3
20260505235902 62 27 0.0 4.3 0.00 0.00 0.00 72 1015.4
20260505235403 62 5 0.0 4.3 0.00 0.00 0.00 73 1015.4
20260505234903 62 20 0.9 4.3 0.00 0.00 0.00 73 1015.4
20260505234403 62 272 0.0 0.9 0.00 0.00 0.00 73 1015.5
20260505233903 62 317 0.0 2.6 0.00 0.00 0.00 74 1015.5
20260505233403 62 25 0.9 2.6 0.00 0.00 0.00 73 1015.6
20260505232903 62 52 0.0 1.7 0.00 0.00 0.00 74 1015.6
20260505232403 62 115 0.0 1.7 0.00 0.00 0.00 72 1015.6
20260505231404 62 21 0.0 0.0 0.00 0.00 0.00 73 1015.6
20260505230904 62 267 0.0 0.0 0.00 0.00 0.00 72 1015.6
20260505225402 63 262 0.0 0.0 0.00 0.00 0.00 72 1015.7
20260505224903 63 238 0.0 0.0 0.00 0.00 0.00 73 1015.7
20260505224403 63 334 0.0 0.0 0.00 0.00 0.00 71 1015.7
20260505223403 63 9 0.0 0.0 0.00 0.00 0.00 72 1015.8
20260505222903 63 173 0.0 0.0 0.00 0.00 0.00 71 1015.7
20260505222403 63 276 0.0 1.7 0.00 0.00 0.00 73 1015.7
20260505221903 63 329 0.0 2.6 0.00 0.00 0.00 75 1015.8
20260505220403 63 30 0.9 4.3 0.00 0.00 0.00 74 1015.9
20260505215903 63 191 0.9 1.7 0.00 0.00 0.00 73 1015.9
20260505215403 63 7 0.9 1.7 0.00 0.00 0.00 72 1015.9
20260505214902 63 80 0.9 5.2 0.00 0.00 0.00 72 1016.0
20260505214403 63 139 0.9 5.2 0.00 0.00 0.00 74 1016.0
20260505213903 63 34 0.9 5.2 0.00 0.00 0.00 71 1016.0
20260505213403 63 272 0.0 1.7 0.00 0.00 0.00 71 1016.1
20260505212903 63 71 0.0 1.7 0.00 0.00 0.00 71 1016.1
20260505212403 63 160 0.9 1.7 0.00 0.00 0.00 72 1016.1
20260505211903 63 246 0.9 1.7 0.00 0.00 0.00 72 1016.1
20260505211403 63 251 0.9 1.7 0.00 0.00 0.00 74 1016.1
20260505210902 62 231 0.9 2.6 0.00 0.00 0.00 72 1016.2
20260505210403 62 269 0.9 2.6 0.00 0.00 0.00 72 1016.3
20260505205904 62 250 0.0 2.6 0.00 0.00 0.00 72 1016.3
20260505205403 62 209 0.0 2.6 0.00 0.00 0.00 72 1016.3
20260505204903 62 272 0.0 4.3 0.00 0.00 0.00 75 1016.4
20260505204402 62 283 0.9 4.3 0.00 0.00 0.00 75 1016.4
20260505203903 62 266 0.0 4.3 0.00 0.00 0.00 75 1016.4
20260505203403 62 231 0.9 2.6 0.00 0.00 0.00 74 1016.4
20260505202903 62 267 0.9 5.2 0.00 0.00 0.00 73 1016.4
20260505202403 62 175 1.7 5.2 0.00 0.00 0.00 73 1016.4
20260505201402 61 337 0.9 2.6 0.00 0.00 0.00 75 1016.5
20260505200903 61 183 0.0 1.7 0.00 0.00 0.00 73 1016.5
20260505200403 61 179 0.0 1.7 0.00 0.00 0.00 74 1016.4
20260505195903 61 210 0.9 1.7 0.00 0.00 0.00 75 1016.5
20260505195403 61 270 0.0 0.9 0.00 0.00 0.00 74 1016.5
20260505194902 61 229 0.9 0.9 0.00 0.00 0.00 75 1016.5
20260505194402 61 240 0.0 0.9 0.00 0.00 0.00 74 1016.5
20260505193903 60 32 0.0 0.9 0.00 0.00 0.00 77 1016.5
20260505193402 60 42 0.0 0.9 0.00 0.00 0.00 75 1016.5
20260505192902 60 51 0.0 0.9 0.00 0.00 0.00 77 1016.6
20260505192403 60 234 0.0 1.7 0.00 0.00 0.00 76 1016.5
20260505191903 60 239 0.9 2.6 0.00 0.00 0.00 77 1016.6
20260505190903 60 79 0.0 1.7 0.00 0.00 0.00 76 1016.6
20260505190403 60 86 0.0 1.7 0.00 0.00 0.00 77 1016.5
20260505185903 59 87 0.0 0.9 0.00 0.00 0.00 76 1016.5
20260505185403 59 85 0.0 2.6 0.00 0.00 0.00 76 1016.5
20260505184903 59 188 0.9 2.6 0.00 0.00 0.00 76 1016.5
20260505184404 60 229 0.9 1.7 0.00 0.00 0.00 76 1016.6
20260505183403 59 188 0.9 2.6 0.00 0.00 0.00 78 1016.6
20260505182903 59 196 0.0 1.7 0.00 0.00 0.00 77 1016.6
20260505182402 59 248 0.0 1.7 0.00 0.00 0.00 79 1016.6
20260505181903 59 94 0.9 1.7 0.00 0.00 0.00 78 1016.5
20260505181402 59 93 0.9 1.7 0.00 0.00 0.00 77 1016.6
20260505180903 58 65 0.9 1.7 0.00 0.00 0.00 79 1016.6
20260505180404 58 342 0.0 0.9 0.00 0.00 0.00 78 1016.6
20260505175903 58 81 0.0 2.6 0.00 0.00 0.00 79 1016.5
20260505175403 58 225 0.0 2.6 0.00 0.00 0.00 79 1016.5
20260505174402 58 119 0.0 2.6 0.00 0.00 0.00 81 1016.5
20260505173902 58 97 1.7 2.6 0.00 0.00 0.00 80 1016.6
20260505173402 57 126 0.0 1.7 0.00 0.00 0.00 81 1016.4
20260505172903 57 94 0.0 1.7 0.00 0.00 0.00 82 1016.4
20260505172403 57 158 0.9 1.7 0.00 0.00 0.00 81 1016.4
20260505171903 57 233 0.9 1.7 0.00 0.00 0.00 81 1016.3
20260505171403 57 3 0.0 1.7 0.00 0.00 0.00 82 1016.3
20260505170903 57 332 0.0 1.7 0.00 0.00 0.00 82 1016.3
20260505170403 57 339 0.9 1.7 0.00 0.00 0.00 82 1016.3
20260505165903 57 215 0.9 2.6 0.00 0.00 0.00 82 1016.3
20260505164403 56 248 0.0 0.0 0.00 0.00 0.00 83 1016.3
20260505163903 56 202 0.0 0.0 0.00 0.00 0.00 83 1016.3
20260505163403 56 214 0.0 0.0 0.00 0.00 0.00 83 1016.3
20260505162902 56 167 0.0 0.0 0.00 0.00 0.00 83 1016.2
20260505162403 56 170 0.0 0.0 0.00 0.00 0.00 83 1016.2
20260505161903 56 225 0.0 0.0 0.00 0.00 0.00 83 1016.1
20260505161403 56 214 0.0 0.0 0.00 0.00 0.00 84 1016.1
20260505160903 56 216 0.0 0.0 0.00 0.00 0.00 84 1016.1
20260505160403 56 203 0.0 0.0 0.00 0.00 0.00 84 1016.2
20260505152903 55 174 0.0 0.0 0.00 0.00 0.00 85 1016.1
20260505152403 55 215 0.0 0.0 0.00 0.00 0.00 86 1016.0
20260505151903 55 216 0.0 0.0 0.00 0.00 0.00 86 1016.0
20260505150903 55 226 0.0 0.0 0.00 0.00 0.00 86 1015.9
20260505150403 54 239 0.0 0.0 0.00 0.00 0.00 87 1015.8
20260505140403 54 243 0.0 0.0 0.00 0.00 0.00 87 1015.2
20260505124904 54 250 0.0 0.0 0.00 0.00 0.00 88 1014.9
20260505123403 54 250 0.0 0.0 0.00 0.00 0.00 88 1014.9
20260505122903 54 250 0.0 0.0 0.00 0.00 0.00 89 1014.8
20260505122403 54 250 0.0 0.0 0.00 0.00 0.00 88 1014.9
20260505121903 54 250 0.0 0.0 0.00 0.00 0.00 88 1014.9
20260505121403 54 250 0.0 0.0 0.00 0.00 0.00 88 1014.8
20260505120403 54 250 0.0 0.0 0.00 0.00 0.00 88 1014.8
20260505115904 54 250 0.0 0.0 0.00 0.00 0.00 88 1014.8
20260505115403 54 250 0.0 0.0 0.00 0.00 0.00 88 1014.7
20260505114903 54 250 0.0 0.0 0.00 0.00 0.00 88 1014.7
20260505114404 54 250 0.0 0.0 0.00 0.00 0.00 88 1014.7
20260505113402 54 250 0.0 0.0 0.00 0.00 0.00 88 1014.7
20260505112904 54 250 0.0 0.0 0.00 0.00 0.00 88 1014.8
20260505111903 54 250 0.0 0.0 0.00 0.00 0.00 88 1014.7
20260505111403 54 250 0.0 0.0 0.00 0.00 0.00 88 1014.7
20260505110903 54 250 0.0 0.0 0.00 0.00 0.00 88 1014.7
20260505101903 54 250 0.0 0.0 0.00 0.00 0.00 88 1014.3
20260505101404 54 248 0.0 0.0 0.00 0.00 0.00 88 1014.3
20260505100903 54 252 0.0 0.0 0.00 0.00 0.00 88 1014.3
20260505100403 54 248 0.0 0.0 0.00 0.00 0.00 88 1014.3
20260505095903 54 230 0.0 0.0 0.00 0.00 0.00 88 1014.3
20260505094903 54 230 0.0 1.7 0.00 0.00 0.00 87 1014.2
20260505094403 54 230 0.0 1.7 0.00 0.00 0.00 87 1014.2
20260505093903 54 230 0.0 0.0 0.00 0.00 0.00 87 1014.2
20260505093403 54 230 0.0 0.0 0.00 0.00 0.00 87 1014.2